When you browse on this site, cookies collect data to enhance your experience and personalize the content and advertising you see.
Visit our Privacy Policy to learn more. By continuing to use the site, you agree to this use of cookies and data.
  • Em Portugal
  • Lista de países
  • Para 7 dias
  • Temperatura da água
  • Mapas de satélite
  • Mapa do tempo
  • Widgets de tempo
  • user-avatar
    Iniciar Sessão

    Previsão horária em Aleksandrowice

    Hoje, 21 Fevereiro, Quinta-feira

    Tempo Temperatura Precipitação Vento Pressão Humidade
    00:00 +5°C° 0 mm 3 m/s 759 mmHg 81%
    01:00 +5°C° 0 mm 3 m/s 759 mmHg 82%
    02:00 +4°C° 0 mm 3 m/s 759 mmHg 83%
    03:00 +4°C° 0 mm 3 m/s 759 mmHg 85%
    04:00 +3°C° 0 mm 3 m/s 759 mmHg 87%
    05:00 +3°C° 0 mm 3 m/s 759 mmHg 86%
    06:00 +3°C° 0 mm 3 m/s 759 mmHg 86%
    07:00 +3°C° 0 mm 3 m/s 759 mmHg 86%
    08:00 +4°C° 0 mm 4 m/s 759 mmHg 82%
    09:00 +5°C° 0 mm 4 m/s 759 mmHg 79%
    10:00 +6°C° 0 mm 5 m/s 759 mmHg 75%
    11:00 +6°C° 0.1 mm 5 m/s 759 mmHg 74%
    12:00 +6°C° 0.1 mm 5 m/s 759 mmHg 73%
    13:00 +6°C° 0.1 mm 5 m/s 758 mmHg 73%
    14:00 +6°C° 0.6 mm 5 m/s 758 mmHg 74%
    15:00 +6°C° 0.6 mm 4 m/s 758 mmHg 75%
    16:00 +6°C° 0.6 mm 4 m/s 758 mmHg 77%
    17:00 +6°C° 0 mm 4 m/s 758 mmHg 77%
    18:00 +6°C° 0 mm 4 m/s 757 mmHg 78%
    19:00 +6°C° 0 mm 4 m/s 757 mmHg 78%
    20:00 +6°C° 0 mm 5 m/s 757 mmHg 81%
    21:00 +6°C° 0 mm 5 m/s 757 mmHg 84%
    22:00 +7°C° 0 mm 6 m/s 757 mmHg 87%
    23:00 +5°C° 0.2 mm 6 m/s 757 mmHg 89%

    Amanhã, 22 Fevereiro, Sexta-feira

    Tempo Temperatura Precipitação Vento Pressão Humidade
    00:00 +6°C° 0.2 mm 5 m/s 757 mmHg 90%
    01:00 +6°C° 0.2 mm 5 m/s 757 mmHg 91%
    02:00 +6°C° 0.4 mm 5 m/s 757 mmHg 91%
    03:00 +5°C° 0.4 mm 6 m/s 757 mmHg 91%
    04:00 +5°C° 0.4 mm 6 m/s 757 mmHg 90%
    05:00 +4°C° 0.1 mm 6 m/s 759 mmHg 87%
    06:00 +3°C° 0.1 mm 7 m/s 760 mmHg 83%
    07:00 0°C° 0.1 mm 7 m/s 761 mmHg 80%
    08:00 0°C° 0 mm 7 m/s 762 mmHg 76%
    09:00 -1°C° 0 mm 6 m/s 763 mmHg 73%
    10:00 0°C° 0 mm 5 m/s 765 mmHg 69%
    11:00 0°C° 0 mm 5 m/s 765 mmHg 62%
    12:00 +1°C° 0 mm 5 m/s 766 mmHg 56%
    13:00 +1°C° 0 mm 4 m/s 767 mmHg 49%
    14:00 +1°C° 0 mm 4 m/s 767 mmHg 49%
    15:00 +1°C° 0 mm 4 m/s 768 mmHg 48%
    16:00 +1°C° 0 mm 4 m/s 768 mmHg 48%
    17:00 +1°C° 0 mm 3 m/s 769 mmHg 52%
    18:00 0°C° 0 mm 3 m/s 769 mmHg 56%
    19:00 -1°C° 0 mm 2 m/s 770 mmHg 60%
    20:00 -1°C° 0 mm 2 m/s 771 mmHg 60%
    21:00 -2°C° 0 mm 2 m/s 771 mmHg 59%
    22:00 -2°C° 0 mm 2 m/s 772 mmHg 59%
    23:00 -2°C° 0 mm 2 m/s 772 mmHg 58%

    Depois de amanhã, 23 Fevereiro, Sábado

    Tempo Temperatura Precipitação Vento Pressão Humidade
    00:00 -2°C° 0 mm 2 m/s 772 mmHg 56%
    01:00 -2°C° 0 mm 2 m/s 772 mmHg 55%
    02:00 -3°C° 0 mm 2 m/s 772 mmHg 54%
    03:00 -1°C° 0 mm 1 m/s 772 mmHg 52%
    04:00 -1°C° 0 mm 1 m/s 772 mmHg 51%
    05:00 -1°C° 0 mm 1 m/s 772 mmHg 51%
    06:00 -1°C° 0 mm 1 m/s 772 mmHg 51%
    07:00 -1°C° 0 mm 1 m/s 772 mmHg 51%
    08:00 0°C° 0 mm 1 m/s 773 mmHg 45%
    09:00 -2°C° 0 mm 2 m/s 773 mmHg 39%
    10:00 -1°C° 0 mm 2 m/s 773 mmHg 34%
    11:00 +1°C° 0 mm 2 m/s 773 mmHg 31%
    12:00 +2°C° 0 mm 2 m/s 773 mmHg 28%
    13:00 +2°C° 0 mm 2 m/s 772 mmHg 25%
    14:00 +3°C° 0 mm 1 m/s 772 mmHg 25%
    15:00 +3°C° 0 mm 1 m/s 772 mmHg 26%
    16:00 +3°C° 0 mm 0 m/s 772 mmHg 26%
    17:00 +3°C° 0 mm 1 m/s 772 mmHg 29%
    18:00 +2°C° 0 mm 1 m/s 771 mmHg 32%
    19:00 +1°C° 0 mm 1 m/s 771 mmHg 35%
    20:00 +1°C° 0 mm 1 m/s 771 mmHg 36%
    21:00 +1°C° 0 mm 1 m/s 771 mmHg 36%
    22:00 -2°C° 0 mm 2 m/s 771 mmHg 37%
    23:00 -2°C° 0 mm 2 m/s 771 mmHg 38%

    24 Fevereiro, Domingo

    Tempo Temperatura Precipitação Vento Pressão Humidade
    00:00 -2°C° 0 mm 2 m/s 771 mmHg 38%
    01:00 -2°C° 0 mm 2 m/s 771 mmHg 39%
    02:00 0°C° 0 mm 1 m/s 770 mmHg 38%
    03:00 0°C° 0 mm 1 m/s 770 mmHg 37%
    04:00 0°C° 0 mm 1 m/s 770 mmHg 36%
    05:00 0°C° 0 mm 1 m/s 770 mmHg 35%
    06:00 0°C° 0 mm 1 m/s 770 mmHg 34%
    07:00 0°C° 0 mm 1 m/s 769 mmHg 32%
    08:00 +2°C° 0 mm 1 m/s 769 mmHg 30%
    09:00 +3°C° 0 mm 1 m/s 769 mmHg 28%
    10:00 +3°C° 0 mm 2 m/s 769 mmHg 26%
    11:00 +5°C° 0 mm 2 m/s 769 mmHg 28%
    12:00 +6°C° 0 mm 2 m/s 768 mmHg 30%
    13:00 +7°C° 0 mm 3 m/s 768 mmHg 32%
    14:00 +7°C° 0 mm 3 m/s 768 mmHg 38%
    15:00 +5°C° 0 mm 3 m/s 767 mmHg 43%
    16:00 +6°C° 0 mm 2 m/s 767 mmHg 49%
    17:00 +4°C° 0 mm 3 m/s 767 mmHg 53%
    18:00 +3°C° 0 mm 3 m/s 767 mmHg 57%
    19:00 +2°C° 0 mm 3 m/s 767 mmHg 62%
    20:00 +2°C° 0 mm 3 m/s 766 mmHg 64%
    21:00 +2°C° 0 mm 3 m/s 766 mmHg 67%
    22:00 +1°C° 0 mm 4 m/s 766 mmHg 70%
    23:00 +1°C° 0 mm 4 m/s 766 mmHg 73%

    25 Fevereiro, Segunda-feira

    Tempo Temperatura Precipitação Vento Pressão Humidade
    00:00 +1°C° 0 mm 4 m/s 766 mmHg 76%
    01:00 0°C° 0 mm 4 m/s 766 mmHg 80%
    02:00 +1°C° 0 mm 4 m/s 766 mmHg 83%
    03:00 +1°C° 0 mm 4 m/s 766 mmHg 87%
    04:00 +1°C° 0 mm 4 m/s 766 mmHg 91%
    05:00 +1°C° 0 mm 4 m/s 767 mmHg 92%
    06:00 +2°C° 0 mm 3 m/s 767 mmHg 94%
    07:00 +2°C° 0 mm 3 m/s 768 mmHg 95%
    08:00 +3°C° 0 mm 3 m/s 768 mmHg 89%
    09:00 +4°C° 0 mm 3 m/s 769 mmHg 84%
    10:00 +5°C° 0 mm 3 m/s 769 mmHg 78%
    11:00 +7°C° 0 mm 3 m/s 769 mmHg 70%
    12:00 +8°C° 0 mm 3 m/s 769 mmHg 62%
    13:00 +9°C° 0 mm 3 m/s 769 mmHg 55%
    14:00 +9°C° 0 mm 3 m/s 769 mmHg 54%
    15:00 +9°C° 0 mm 3 m/s 769 mmHg 53%
    16:00 +9°C° 0 mm 3 m/s 769 mmHg 52%
    17:00 +7°C° 0 mm 3 m/s 769 mmHg 56%
    18:00 +6°C° 0 mm 2 m/s 769 mmHg 60%
    19:00 +5°C° 0 mm 2 m/s 769 mmHg 64%
    20:00 +5°C° 0 mm 2 m/s 769 mmHg 65%
    21:00 +4°C° 0 mm 2 m/s 769 mmHg 67%
    22:00 +4°C° 0 mm 2 m/s 768 mmHg 68%
    23:00 +3°C° 0 mm 2 m/s 768 mmHg 70%

    26 Fevereiro, Terça-feira

    Tempo Temperatura Precipitação Vento Pressão Humidade
    00:00 +3°C° 0 mm 2 m/s 767 mmHg 73%
    01:00 +2°C° 0 mm 3 m/s 767 mmHg 75%
    02:00 +1°C° 0 mm 3 m/s 766 mmHg 80%
    03:00 +1°C° 0 mm 3 m/s 766 mmHg 84%
    04:00 +1°C° 0 mm 3 m/s 765 mmHg 88%
    05:00 +1°C° 0 mm 3 m/s 765 mmHg 89%
    06:00 0°C° 0 mm 4 m/s 764 mmHg 90%
    07:00 0°C° 0 mm 4 m/s 764 mmHg 90%
    08:00 +1°C° 0 mm 4 m/s 764 mmHg 84%
    09:00 +2°C° 0 mm 5 m/s 763 mmHg 78%
    10:00 +5°C° 0 mm 5 m/s 763 mmHg 72%
    11:00 +6°C° 0 mm 5 m/s 763 mmHg 67%
    12:00 +8°C° 0 mm 6 m/s 762 mmHg 63%
    13:00 +9°C° 0 mm 6 m/s 761 mmHg 58%
    14:00 +9°C° 0 mm 6 m/s 761 mmHg 58%
    15:00 +10°C° 0 mm 6 m/s 760 mmHg 58%
    16:00 +10°C° 0 mm 7 m/s 760 mmHg 58%
    17:00 +9°C° 0 mm 6 m/s 760 mmHg 62%
    18:00 +8°C° 0 mm 6 m/s 760 mmHg 66%
    19:00 +7°C° 0 mm 5 m/s 760 mmHg 70%
    20:00 +7°C° 0 mm 5 m/s 760 mmHg 73%
    21:00 +6°C° 0 mm 5 m/s 760 mmHg 76%
    22:00 +6°C° 0 mm 4 m/s 760 mmHg 79%
    23:00 +6°C° 0 mm 4 m/s 760 mmHg 82%
    Mostrar mais